Terminal Aerodrome Forecast
Issued by NWS

Home | Current Version | Previous Version | Text Only | Print | Product List | Glossary On
Versions: 1 2 3 4 5 6 7 8 9 10 11 12 13 14 15 16 17 18 19 20 21
000
FTUS41 KBGM 201100
TAFRME
TAF
KRME 201132Z 2012/2112 10004KT P6SM BKN120
     FM201600 20007KT P6SM OVC080
     FM210000 13005KT P6SM OVC050
     FM210500 12005KT P6SM -SHRA OVC035=

USA.gov is the U.S. government's official web portal to all federal, state and local government web resources and services.